When you browse on this site, cookies collect data to enhance your experience and personalize the content and advertising you see.
Visit our Privacy Policy to learn more. By continuing to use the site, you agree to this use of cookies and data.
  • en Suisse
  • Liste des pays
  • À 7 jours
  • Température de l'eau
  • Carte météo
  • Widgets météo
  • user-avatar
    Se connecter

    Météo par heure à Tarin Kowt

    Ce jour, 16 Octobre, Mercredi

    Heure Température Précipitation Vent Pression Humidité
    00:00 +8°C° 0 mm 0 m/s 618 mmHg 35%
    01:00 +8°C° 0 mm 0 m/s 617 mmHg 35%
    02:00 +8°C° 0 mm 0 m/s 617 mmHg 35%
    03:00 +8°C° 0 mm 0 m/s 617 mmHg 35%
    04:00 +8°C° 0 mm 0 m/s 617 mmHg 43%
    05:00 +10°C° 0 mm 0 m/s 619 mmHg 37%
    06:00 +12°C° 0 mm 0 m/s 620 mmHg 31%
    07:00 +15°C° 0 mm 1 m/s 621 mmHg 24%
    08:00 +18°C° 0 mm 1 m/s 622 mmHg 21%
    09:00 +20°C° 0 mm 1 m/s 622 mmHg 18%
    10:00 +22°C° 0 mm 1 m/s 623 mmHg 15%
    11:00 +23°C° 0 mm 2 m/s 622 mmHg 15%
    12:00 +24°C° 0 mm 3 m/s 622 mmHg 14%
    13:00 +23°C° 0 mm 4 m/s 622 mmHg 13%
    14:00 +23°C° 0 mm 4 m/s 621 mmHg 14%
    15:00 +22°C° 0 mm 4 m/s 621 mmHg 14%
    16:00 +21°C° 0 mm 4 m/s 620 mmHg 16%
    17:00 +18°C° 0 mm 3 m/s 620 mmHg 20%
    18:00 +15°C° 0 mm 2 m/s 619 mmHg 25%
    19:00 +12°C° 0 mm 1 m/s 618 mmHg 29%
    20:00 +11°C° 0 mm 1 m/s 618 mmHg 31%
    21:00 +10°C° 0 mm 1 m/s 618 mmHg 33%
    22:00 +9°C° 0 mm 0 m/s 618 mmHg 35%
    23:00 +8°C° 0 mm 0 m/s 617 mmHg 36%

    Demain, 17 Octobre, Jeudi

    Heure Température Précipitation Vent Pression Humidité
    00:00 +8°C° 0 mm 0 m/s 617 mmHg 37%
    01:00 +8°C° 0 mm 0 m/s 617 mmHg 38%
    02:00 +7°C° 0 mm 0 m/s 617 mmHg 42%
    03:00 +7°C° 0 mm 0 m/s 617 mmHg 46%
    04:00 +7°C° 0 mm 0 m/s 616 mmHg 50%
    05:00 +9°C° 0 mm 0 m/s 617 mmHg 42%
    06:00 +11°C° 0 mm 0 m/s 619 mmHg 35%
    07:00 +13°C° 0 mm 0 m/s 620 mmHg 27%
    08:00 +16°C° 0 mm 1 m/s 620 mmHg 24%
    09:00 +19°C° 0 mm 1 m/s 621 mmHg 21%
    10:00 +21°C° 0 mm 1 m/s 621 mmHg 17%
    11:00 +20°C° 0 mm 2 m/s 621 mmHg 16%
    12:00 +21°C° 0 mm 3 m/s 621 mmHg 14%
    13:00 +22°C° 0 mm 4 m/s 620 mmHg 12%
    14:00 +22°C° 0 mm 4 m/s 620 mmHg 13%
    15:00 +21°C° 0 mm 4 m/s 620 mmHg 13%
    16:00 +21°C° 0 mm 4 m/s 620 mmHg 14%
    17:00 +18°C° 0 mm 3 m/s 619 mmHg 18%
    18:00 +15°C° 0 mm 2 m/s 618 mmHg 22%
    19:00 +12°C° 0 mm 1 m/s 617 mmHg 26%
    20:00 +11°C° 0 mm 1 m/s 617 mmHg 26%
    21:00 +10°C° 0 mm 1 m/s 617 mmHg 26%
    22:00 +10°C° 0 mm 1 m/s 617 mmHg 26%
    23:00 +9°C° 0 mm 1 m/s 617 mmHg 28%

    Après-demain, 18 Octobre, Vendredi

    Heure Température Précipitation Vent Pression Humidité
    00:00 +9°C° 0 mm 1 m/s 616 mmHg 29%
    01:00 +9°C° 0 mm 1 m/s 616 mmHg 30%
    02:00 +8°C° 0 mm 1 m/s 616 mmHg 32%
    03:00 +8°C° 0 mm 1 m/s 616 mmHg 33%
    04:00 +8°C° 0 mm 1 m/s 615 mmHg 35%
    05:00 +10°C° 0 mm 1 m/s 617 mmHg 32%
    06:00 +11°C° 0 mm 1 m/s 618 mmHg 28%
    07:00 +13°C° 0 mm 1 m/s 619 mmHg 25%
    08:00 +15°C° 0 mm 1 m/s 620 mmHg 23%
    09:00 +18°C° 0 mm 1 m/s 620 mmHg 20%
    10:00 +20°C° 0 mm 1 m/s 621 mmHg 18%
    11:00 +21°C° 0 mm 1 m/s 621 mmHg 16%
    12:00 +21°C° 0 mm 2 m/s 620 mmHg 15%
    13:00 +23°C° 0 mm 2 m/s 620 mmHg 14%
    14:00 +21°C° 0 mm 3 m/s 620 mmHg 14%
    15:00 +21°C° 0 mm 3 m/s 619 mmHg 14%
    16:00 +21°C° 0 mm 4 m/s 619 mmHg 14%
    17:00 +18°C° 0 mm 3 m/s 618 mmHg 17%
    18:00 +14°C° 0 mm 2 m/s 618 mmHg 21%
    19:00 +11°C° 0 mm 1 m/s 617 mmHg 24%
    20:00 +11°C° 0 mm 1 m/s 617 mmHg 26%
    21:00 +10°C° 0 mm 1 m/s 617 mmHg 29%
    22:00 +8°C° 0 mm 0 m/s 617 mmHg 31%
    23:00 +9°C° 0 mm 1 m/s 617 mmHg 33%

    19 Octobre, Samedi

    Heure Température Précipitation Vent Pression Humidité
    00:00 +9°C° 0 mm 1 m/s 617 mmHg 36%
    01:00 +9°C° 0 mm 1 m/s 617 mmHg 39%
    02:00 +9°C° 0 mm 1 m/s 617 mmHg 44%
    03:00 +8°C° 0 mm 1 m/s 617 mmHg 49%
    04:00 +7°C° 0 mm 2 m/s 617 mmHg 54%
    05:00 +10°C° 0 mm 1 m/s 618 mmHg 48%
    06:00 +11°C° 0 mm 1 m/s 619 mmHg 41%
    07:00 +13°C° 0 mm 1 m/s 620 mmHg 35%
    08:00 +15°C° 0 mm 1 m/s 621 mmHg 30%
    09:00 +18°C° 0 mm 1 m/s 621 mmHg 25%
    10:00 +20°C° 0 mm 1 m/s 622 mmHg 21%
    11:00 +20°C° 0 mm 2 m/s 622 mmHg 18%
    12:00 +21°C° 0 mm 2 m/s 622 mmHg 16%
    13:00 +22°C° 0 mm 3 m/s 622 mmHg 14%
    14:00 +22°C° 0 mm 3 m/s 621 mmHg 14%
    15:00 +21°C° 0 mm 4 m/s 621 mmHg 14%
    16:00 +21°C° 0 mm 4 m/s 620 mmHg 14%
    17:00 +18°C° 0 mm 3 m/s 620 mmHg 18%
    18:00 +15°C° 0 mm 2 m/s 619 mmHg 22%
    19:00 +12°C° 0 mm 1 m/s 618 mmHg 26%
    20:00 +11°C° 0 mm 1 m/s 618 mmHg 27%
    21:00 +10°C° 0 mm 0 m/s 618 mmHg 28%
    22:00 +10°C° 0 mm 0 m/s 618 mmHg 29%
    23:00 +9°C° 0 mm 0 m/s 618 mmHg 30%

    20 Octobre, Dimanche

    Heure Température Précipitation Vent Pression Humidité
    00:00 +9°C° 0 mm 0 m/s 618 mmHg 31%
    01:00 +8°C° 0 mm 0 m/s 617 mmHg 31%
    02:00 +8°C° 0 mm 0 m/s 617 mmHg 36%
    03:00 +9°C° 0 mm 1 m/s 617 mmHg 41%
    04:00 +8°C° 0 mm 1 m/s 617 mmHg 45%
    05:00 +10°C° 0 mm 1 m/s 618 mmHg 38%
    06:00 +12°C° 0 mm 1 m/s 619 mmHg 31%
    07:00 +13°C° 0 mm 0 m/s 620 mmHg 24%
    08:00 +16°C° 0 mm 1 m/s 621 mmHg 20%
    09:00 +19°C° 0 mm 1 m/s 622 mmHg 17%
    10:00 +21°C° 0 mm 1 m/s 623 mmHg 13%
    11:00 +21°C° 0 mm 2 m/s 623 mmHg 12%
    12:00 +22°C° 0 mm 4 m/s 622 mmHg 10%
    13:00 +23°C° 0 mm 5 m/s 622 mmHg 8%
    14:00 +22°C° 0 mm 4 m/s 621 mmHg 8%
    15:00 +22°C° 0 mm 4 m/s 621 mmHg 9%
    16:00 +21°C° 0 mm 4 m/s 621 mmHg 9%
    17:00 +18°C° 0 mm 3 m/s 620 mmHg 11%
    18:00 +14°C° 0 mm 3 m/s 619 mmHg 14%
    19:00 +12°C° 0 mm 2 m/s 618 mmHg 16%
    20:00 +11°C° 0 mm 1 m/s 618 mmHg 17%
    21:00 +10°C° 0 mm 1 m/s 618 mmHg 18%
    22:00 +9°C° 0 mm 1 m/s 617 mmHg 19%
    23:00 +9°C° 0 mm 1 m/s 617 mmHg 20%

    21 Octobre, Lundi

    Heure Température Précipitation Vent Pression Humidité
    00:00 +9°C° 0 mm 1 m/s 617 mmHg 20%
    01:00 +9°C° 0 mm 1 m/s 617 mmHg 21%
    02:00 +8°C° 0 mm 1 m/s 617 mmHg 27%
    03:00 +8°C° 0 mm 1 m/s 617 mmHg 32%
    04:00 +8°C° 0 mm 1 m/s 617 mmHg 38%
    05:00 +9°C° 0 mm 1 m/s 618 mmHg 30%
    06:00 +11°C° 0 mm 1 m/s 619 mmHg 23%
    07:00 +13°C° 0 mm 1 m/s 620 mmHg 16%
    08:00 +15°C° 0 mm 1 m/s 621 mmHg 14%
    09:00 +19°C° 0 mm 1 m/s 621 mmHg 12%
    10:00 +21°C° 0 mm 1 m/s 622 mmHg 10%
    11:00 +22°C° 0 mm 1 m/s 622 mmHg 9%
    12:00 +23°C° 0 mm 1 m/s 621 mmHg 8%
    13:00 +24°C° 0 mm 1 m/s 621 mmHg 8%
    14:00 +23°C° 0 mm 2 m/s 621 mmHg 8%
    15:00 +23°C° 0 mm 2 m/s 620 mmHg 8%
    16:00 +23°C° 0 mm 2 m/s 620 mmHg 8%
    17:00 +19°C° 0 mm 2 m/s 619 mmHg 11%
    18:00 +16°C° 0 mm 2 m/s 618 mmHg 13%
    19:00 +13°C° 0 mm 2 m/s 617 mmHg 15%
    20:00 +12°C° 0 mm 1 m/s 617 mmHg 16%
    21:00 +11°C° 0 mm 1 m/s 617 mmHg 17%
    22:00 +11°C° 0 mm 1 m/s 616 mmHg 17%
    23:00 +10°C° 0 mm 1 m/s 616 mmHg 18%
    Voir plus